User: anonymous   Login
Location: Unspecified
(0.0000°N, 0.0000°E)
Time: 11:03:00
(UTC+00:00)
Language:

BIROS - Orbit

View from above orbital plane
View from above orbital plane
View from above satellite
View from above satellite

Ground track
Ground track

The orbit data is extracted from the following two-line orbital elements,

1 41604U 16040F   17352.13874719  .00000664  00000-0  32890-4 0  9996
2 41604  97.4396  52.5358 0013665 139.2792 220.9468 15.21160034 82641
Epoch (UTC): 18 December 2017 03:19:47
Eccentricity: 0.0013665
inclination: 97.4396°
perigee height: 493 km
apogee height: 512 km
right ascension of ascending node: 52.5358°
argument of perigee: 139.2792°
revolutions per day: 15.21160034
mean anomaly at epoch: 220.9468°
orbit number at epoch: 8264

The dashed part of the orbit path shows where the satellite is in the earth's shadow,  

DLR